|
NORAD ID: 36360 Int'l Code: 2010-002C
Perigee: 526.0 km
Apogee: 34,590.1 km
Inclination: 46.2 °
Period: 614.0 minutes
Semi major axis: 23928 km
Launch date: January 28, 2010
Source: Commonwealth of Independent States (former USSR) (CIS)
Note: This is SATELLITE DEBRIS
Two Line Element Set (TLE):
1 36360U 10002C 13142.16937791 .00000268 00000-0 13877-2 0 9641
2 36360 046.2100 151.9974 7117744 346.7343 010.8858 02.34539475 27911
Source:
NASA's NSSDC Master Catalog entry for BREEZE-M DEB (TANK)
|